Temp
18 18 17 17 19 17 18 18 17 19 19 16 16 18 19 17 18 19 14 13 14 14 14 15 15 16 16 17 17 17 17 16 16 16 16 16 16 16 15 16 16 16 15 15 14 14 14 14 13
18 17 17 16 18 18 19 17 18 18 17 16 16 15 17 16 14 13 13 14 14 14 14 15 15 15 16 16 16 16 16 16 16 16 16 16 15 15 15 15 15 15 14 14 14 14 13 13 13
17 17 17 16 15 18 19 18 18 17 15 16 16 15 14 14 13 13 14 14 14 14 14 14 15 15 15 15 16 16 16 16 16 16 16 15 15 15 15 15 14 14 14 14 14 14 13 13 13
17 17 15 17 18 18 18 19 16 16 16 15 14 15 14 14 14 16 18 14 14 14 14 14 14 13 15 15 15 16 16 16 15 15 15 15 15 15 14 14 14 14 14 14 14 14 13 13 12
17 16 17 16 17 17 17 17 15 16 16 15 14 14 14 14 15 15 15 14 15 14 13 14 14 14 15 14 15 15 16 15 15 15 15 15 14 14 14 14 14 13 14 14 13 13 13 13 12
17 15 17 17 17 18 17 15 15 16 15 15 14 13 13 14 14 14 14 14 14 14 13 13 13 13 13 13 14 15 15 16 15 15 14 14 14 13 13 14 13 13 13 13 13 13 12 12 12
17 17 17 16 17 18 18 15 15 15 15 15 14 14 13 13 14 13 13 14 14 14 13 12 12 12 12 13 13 15 15 15 15 14 15 14 13 13 13 13 13 13 13 13 13 12 12 12 12
16 16 16 17 18 19 17 15 15 15 15 14 14 15 13 13 13 13 13 13 13 13 13 12 12 12 10 12 13 13 14 15 15 15 14 13 13 13 13 12 13 13 12 13 12 12 12 12 11
17 18 17 17 17 19 15 16 15 14 14 13 13 13 13 13 13 13 13 13 13 13 12 12 11 11 10 10 12 12 13 15 15 14 13 13 13 13 13 13 12 12 13 12 12 12 11 11 11
17 17 18 18 17 17 14 16 15 15 13 13 12 12 12 13 13 12 12 12 12 12 11 11 11 9 11 10 10 12 14 14 14 14 13 13 13 13 13 13 12 13 11 12 12 11 11 11 11
15 18 17 18 17 16 15 15 15 15 16 14 14 12 12 13 12 12 12 12 12 11 10 10 10 10 10 10 12 14 13 14 14 13 13 13 13 13 13 13 12 12 12 12 11 11 11 10 10
16 16 16 17 15 15 16 15 15 15 16 15 13 12 12 12 12 11 11 11 11 11 10 11 11 10 10 11 13 13 14 14 13 13 13 13 12 12 12 12 12 12 12 12 11 10 11 10 10
16 16 14 14 14 15 15 15 15 14 13 13 13 12 12 12 11 11 11 10 10 10 10 11 11 12 12 13 13 13 13 13 13 13 12 12 12 12 12 12 12 12 11 11 10 11 11 10 10
15 14 14 14 14 15 16 15 15 14 12 12 11 12 12 11 11 11 10 10 10 10 10 11 11 12 12 12 12 13 13 12 12 12 12 12 12 12 12 12 12 11 11 10 10 10 10 10 10
16 17 16 15 15 16 15 17 16 13 12 11 12 11 12 12 11 11 10 10 10 9 10 11 11 11 11 12 13 13 12 12 12 12 12 12 12 12 12 12 11 11 10 10 10 10 9 9 9
17 16 18 17 16 15 16 18 15 12 12 11 11 12 11 13 13 12 12 12 13 12 12 12 12 12 12 12 12 12 12 12 12 11 12 12 12 12 12 11 11 10 10 10 9 9 9 9 8
16 17 16 18 16 16 16 19 14 12 13 13 11 12 11 12 12 13 13 12 13 12 12 12 12 11 11 12 12 12 12 11 11 12 12 12 12 12 12 11 10 10 9 9 9 9 9 8 8
17 17 17 18 18 16 16 17 14 12 13 13 12 12 12 12 13 14 13 13 13 12 13 12 12 12 12 12 12 12 12 11 12 12 12 12 12 11 11 10 9 9 9 9 9 8 8 8 7
17 17 17 18 17 17 16 16 16 13 13 13 12 12 13 13 14 13 14 14 13 13 13 13 13 12 12 12 12 11 12 12 11 12 12 12 11 11 11 10 9 9 9 9 8 8 7 6 6
17 17 18 18 17 17 17 18 16 14 15 15 14 13 14 13 13 14 14 14 14 14 13 13 13 13 13 13 13 12 12 12 12 12 11 10 11 11 10 10 9 9 9 8 7 7 6 5 4
17 17 16 17 16 15 16 18 16 15 15 14 14 14 14 16 15 14 14 15 15 14 14 14 14 13 12 12 12 12 12 11 11 12 11 11 11 10 10 9 9 8 8 7 7 6 5 4 4
16 16 17 16 16 17 16 18 17 16 16 15 15 14 15 16 16 16 15 15 15 15 14 14 13 13 13 12 12 12 12 12 12 12 11 11 11 10 9 9 8 8 8 7 6 5 4 4 3
17 15 16 16 16 16 16 17 19 15 16 17 16 16 15 17 17 17 17 16 16 15 15 14 14 13 13 12 12 12 12 12 12 11 11 11 10 10 9 8 8 8 7 6 5 5 3 3 2
15 16 15 14 15 17 16 17 19 18 17 17 17 16 16 16 17 18 17 17 17 16 15 15 14 14 14 13 12 12 12 12 11 10 10 10 10 9 9 8 8 7 6 5 5 5 4 3 3
16 16 16 15 15 16 15 15 18 18 18 17 17 16 17 17 18 19 18 17 17 17 17 16 15 14 14 13 13 12 12 11 10 10 10 10 9 9 9 9 8 7 6 5 4 5 4 3 3
16 16 16 16 15 16 14 16 20 17 17 16 16 16 15 17 18 19 19 19 18 18 17 16 16 15 15 14 13 12 12 11 10 9 9 9 9 10 9 8 7 6 5 4 4 3 3 3 2
15 16 15 13 11 13 15 16 18 17 17 16 16 17 17 17 17 17 18 18 18 17 17 17 17 16 15 15 14 12 11 11 10 9 9 9 9 9 8 7 6 4 4 4 5 3 2 2 1
16 15 15 14 15 14 15 15 18 18 18 16 17 16 17 18 18 17 16 17 18 17 16 16 16 15 15 14 14 13 12 11 10 9 9 10 9 8 7 6 6 5 4 3 3 3 2 1 1
15 15 13 15 14 15 15 16 16 18 18 17 17 17 18 18 18 18 17 17 16 16 16 15 15 15 15 14 14 13 12 11 10 10 9 8 9 8 7 7 5 4 3 2 1 1 1 0 0
15 15 15 15 14 12 12 15 17 16 15 14 16 17 18 19 19 19 18 17 17 17 16 15 15 14 14 14 13 12 13 12 11 11 9 8 7 6 6 4 4 2 1 2 1 1 0 -0 -0
Height
1520 1520 1520 1521 1525 1522 1520 1516 1515 1510 1510 1511 1510 1507 1505 1507 1508 1513 1513 1516 1518 1522 1527 1533 1536 1539 1542 1546 1549 1551 1553 1556 1559 1561 1562 1564 1566 1568 1571 1571 1572 1574 1574 1577 1578 1582 1582 1582 1583
1519 1520 1521 1521 1523 1523 1515 1514 1511 1508 1509 1508 1506 1506 1508 1509 1510 1512 1512 1517 1520 1522 1526 1531 1535 1539 1542 1546 1549 1552 1555 1556 1559 1562 1563 1565 1567 1570 1572 1572 1575 1576 1576 1579 1580 1583 1584 1583 1584
1519 1520 1522 1523 1528 1520 1515 1510 1509 1508 1506 1506 1505 1505 1514 1511 1509 1512 1512 1518 1522 1522 1526 1530 1534 1538 1541 1546 1548 1551 1554 1557 1559 1562 1564 1566 1569 1571 1574 1573 1576 1578 1579 1579 1583 1585 1585 1585 1586
1519 1522 1524 1523 1521 1515 1512 1509 1510 1507 1507 1507 1508 1509 1510 1508 1511 1509 1508 1517 1521 1523 1526 1529 1533 1537 1541 1545 1549 1551 1554 1557 1561 1563 1566 1568 1572 1573 1576 1575 1578 1578 1582 1582 1584 1586 1586 1587 1588
1520 1521 1524 1525 1520 1513 1511 1510 1509 1508 1508 1508 1508 1510 1511 1511 1510 1511 1516 1518 1518 1524 1527 1532 1535 1538 1540 1545 1548 1551 1554 1557 1561 1565 1567 1569 1573 1575 1577 1578 1580 1582 1583 1585 1587 1588 1588 1589 1589
1520 1522 1524 1523 1518 1511 1509 1508 1509 1509 1509 1511 1512 1515 1516 1513 1513 1515 1516 1518 1522 1524 1529 1533 1536 1539 1539 1543 1547 1550 1554 1557 1562 1566 1569 1572 1574 1577 1580 1580 1582 1583 1584 1586 1588 1589 1590 1591 1591
1520 1520 1523 1523 1516 1510 1508 1508 1510 1510 1510 1513 1514 1517 1517 1515 1515 1516 1518 1519 1522 1525 1528 1530 1533 1536 1537 1540 1548 1549 1556 1557 1564 1567 1571 1575 1577 1581 1582 1583 1583 1585 1587 1587 1589 1590 1591 1592 1591
1519 1520 1523 1520 1515 1510 1507 1507 1508 1510 1511 1511 1512 1513 1515 1515 1515 1516 1519 1520 1522 1524 1527 1531 1528 1535 1539 1538 1546 1551 1556 1560 1561 1566 1573 1578 1580 1583 1585 1585 1586 1587 1588 1588 1589 1591 1591 1592 1592
1518 1520 1521 1517 1516 1507 1507 1506 1508 1509 1511 1510 1509 1511 1511 1513 1514 1516 1518 1521 1522 1525 1527 1529 1531 1537 1540 1546 1544 1554 1558 1562 1563 1567 1574 1578 1581 1583 1586 1587 1588 1587 1589 1590 1591 1591 1592 1593 1592
1517 1518 1512 1507 1507 1506 1507 1505 1506 1509 1509 1511 1510 1510 1511 1514 1515 1516 1517 1520 1521 1524 1527 1529 1530 1539 1542 1549 1548 1555 1563 1564 1564 1569 1574 1578 1582 1584 1586 1588 1589 1590 1590 1590 1591 1592 1593 1593 1592
1515 1511 1507 1504 1504 1504 1505 1505 1505 1506 1507 1505 1505 1507 1511 1513 1515 1516 1517 1521 1521 1523 1524 1523 1531 1539 1543 1552 1558 1558 1562 1563 1566 1571 1575 1578 1582 1584 1586 1587 1589 1589 1590 1590 1592 1592 1593 1592 1592
1513 1508 1508 1505 1504 1504 1505 1504 1505 1505 1505 1504 1506 1509 1512 1512 1515 1516 1518 1517 1519 1521 1527 1530 1538 1541 1545 1553 1557 1559 1562 1564 1567 1571 1575 1578 1582 1584 1586 1587 1589 1589 1590 1589 1591 1594 1592 1593 1591
1510 1507 1506 1506 1505 1506 1506 1506 1506 1504 1505 1504 1507 1511 1512 1513 1516 1517 1518 1520 1520 1525 1529 1531 1538 1543 1549 1552 1556 1560 1563 1565 1568 1572 1575 1579 1582 1583 1585 1587 1588 1588 1589 1590 1591 1591 1592 1591 1590
1508 1507 1507 1508 1508 1507 1507 1508 1508 1507 1507 1508 1510 1511 1515 1517 1518 1518 1520 1522 1525 1530 1533 1535 1540 1546 1551 1554 1556 1559 1563 1566 1570 1573 1575 1579 1582 1582 1583 1585 1586 1588 1586 1589 1590 1591 1591 1591 1589
1507 1506 1506 1508 1507 1507 1507 1507 1507 1507 1508 1510 1512 1513 1515 1517 1519 1521 1525 1527 1530 1533 1536 1539 1543 1547 1550 1553 1556 1559 1563 1566 1570 1572 1575 1578 1580 1581 1581 1582 1584 1586 1585 1586 1589 1590 1589 1590 1587
1507 1509 1508 1506 1505 1507 1507 1506 1505 1505 1506 1510 1513 1514 1516 1518 1521 1523 1526 1530 1533 1534 1537 1541 1545 1548 1551 1553 1556 1559 1562 1566 1569 1572 1573 1576 1577 1578 1579 1581 1582 1583 1585 1585 1588 1587 1587 1587 1585
1511 1512 1513 1506 1504 1506 1509 1501 1504 1503 1506 1508 1510 1513 1516 1518 1520 1524 1526 1530 1534 1536 1538 1541 1544 1547 1550 1552 1556 1559 1562 1565 1568 1570 1572 1573 1575 1577 1577 1579 1579 1581 1584 1583 1586 1585 1586 1585 1584
1513 1513 1509 1504 1503 1504 1505 1502 1503 1503 1504 1507 1509 1511 1513 1515 1518 1522 1526 1529 1532 1535 1539 1541 1543 1546 1548 1551 1555 1559 1560 1563 1565 1567 1569 1570 1572 1573 1575 1577 1578 1580 1580 1581 1583 1584 1583 1583 1581
1506 1507 1506 1501 1501 1501 1502 1500 1499 1501 1503 1505 1507 1508 1510 1512 1517 1521 1524 1527 1531 1533 1536 1538 1541 1544 1546 1549 1551 1554 1556 1560 1562 1564 1566 1567 1569 1570 1573 1574 1575 1577 1578 1578 1581 1581 1582 1580 1578
1503 1507 1505 1501 1499 1501 1497 1495 1495 1497 1495 1499 1503 1505 1506 1510 1514 1516 1520 1523 1526 1529 1532 1535 1538 1541 1544 1547 1550 1552 1555 1557 1559 1560 1561 1564 1566 1569 1570 1570 1573 1575 1575 1576 1578 1578 1579 1577 1576
1502 1505 1506 1505 1503 1502 1501 1495 1496 1497 1498 1499 1500 1502 1504 1505 1509 1512 1515 1517 1521 1524 1527 1531 1535 1538 1541 1544 1547 1549 1551 1554 1554 1555 1557 1560 1563 1565 1566 1567 1570 1571 1572 1574 1575 1575 1573 1574 1572
1505 1497 1499 1503 1506 1505 1503 1505 1495 1493 1495 1496 1495 1499 1499 1501 1504 1508 1510 1512 1514 1518 1524 1528 1531 1534 1537 1540 1543 1544 1547 1548 1549 1552 1555 1557 1559 1560 1562 1564 1565 1567 1569 1571 1571 1571 1571 1569 1569
1497 1496 1498 1500 1503 1505 1506 1504 1489 1494 1491 1486 1486 1488 1491 1495 1499 1501 1503 1508 1512 1516 1519 1524 1527 1530 1533 1536 1539 1542 1543 1545 1547 1549 1551 1553 1554 1557 1558 1560 1561 1563 1564 1564 1565 1566 1566 1564 1564
1495 1498 1503 1506 1506 1509 1505 1503 1490 1486 1484 1481 1480 1481 1483 1486 1490 1494 1499 1504 1507 1512 1515 1519 1522 1525 1528 1531 1534 1537 1539 1542 1543 1544 1547 1548 1550 1552 1554 1555 1556 1557 1558 1559 1560 1559 1560 1558 1559
1493 1501 1510 1514 1513 1510 1507 1510 1489 1481 1478 1477 1475 1474 1475 1478 1483 1487 1491 1495 1499 1504 1510 1514 1517 1520 1523 1526 1529 1532 1534 1536 1538 1541 1542 1543 1544 1545 1547 1549 1549 1551 1553 1554 1554 1557 1555 1555 1553
1493 1495 1504 1514 1514 1507 1509 1503 1482 1478 1476 1474 1472 1470 1471 1473 1476 1479 1483 1488 1492 1498 1504 1509 1511 1514 1518 1521 1524 1526 1526 1530 1532 1536 1537 1538 1540 1541 1543 1544 1546 1548 1548 1551 1553 1551 1551 1549 1548
1493 1495 1495 1512 1524 1518 1504 1493 1480 1478 1476 1474 1471 1467 1467 1468 1471 1475 1479 1482 1486 1491 1496 1501 1503 1509 1512 1515 1517 1518 1522 1524 1527 1529 1531 1533 1535 1536 1539 1541 1542 1544 1543 1547 1547 1546 1545 1544 1544
1484 1489 1498 1504 1512 1514 1505 1502 1487 1476 1475 1475 1472 1469 1467 1467 1468 1470 1473 1477 1481 1485 1491 1495 1499 1503 1506 1509 1512 1513 1515 1519 1521 1523 1526 1527 1529 1531 1534 1536 1538 1539 1542 1541 1540 1541 1540 1540 1540
1488 1490 1496 1495 1502 1502 1507 1494 1477 1472 1472 1472 1471 1470 1468 1467 1467 1468 1470 1473 1477 1481 1486 1490 1494 1498 1500 1504 1507 1509 1510 1512 1514 1517 1519 1522 1524 1526 1526 1529 1532 1534 1535 1536 1536 1538 1539 1538 1537
1475 1479 1484 1494 1501 1508 1508 1491 1468 1468 1470 1471 1468 1467 1467 1466 1466 1467 1468 1470 1473 1477 1481 1485 1490 1493 1497 1500 1503 1505 1506 1507 1509 1512 1516 1517 1520 1522 1526 1528 1529 1527 1530 1530 1531 1533 1533 1532 1531
Wind_Speed
3 3 4 2 3 1 3 2 2 3 3 3 5 1 2 6 1 1 1 22 28 32 33 32 32 32 32 31 30 28 25 22 19 17 18 20 22 22 22 22 22 23 24 23 23 22 22 22 21
3 5 2 0 2 2 2 2 4 2 6 1 1 2 3 4 4 2 12 18 29 32 33 33 32 32 32 32 30 27 24 21 20 21 22 23 23 22 22 23 23 24 25 24 23 22 21 21 19
4 3 1 2 1 3 3 3 1 9 7 4 3 7 2 2 5 8 9 22 30 32 33 34 32 31 30 28 26 23 21 20 22 24 26 25 23 24 24 26 26 26 25 24 22 20 19 18 17
2 1 4 1 4 5 4 2 3 2 2 2 3 4 3 4 1 0 9 27 30 31 32 33 33 31 29 27 25 22 20 21 24 26 26 26 25 26 26 27 26 26 24 23 20 18 17 16 15
3 2 2 2 4 4 4 3 3 2 0 4 3 1 5 1 3 9 22 23 26 29 32 32 31 30 31 30 27 24 23 26 26 26 27 28 28 27 27 27 24 23 22 20 18 16 15 14 13
2 2 1 3 4 4 4 1 2 1 1 5 4 4 0 5 7 15 20 20 20 27 28 28 29 29 32 29 25 24 25 26 27 26 28 30 29 26 25 24 23 22 20 18 17 16 15 14 11
2 2 1 4 5 4 1 1 3 2 1 2 6 4 4 10 15 17 20 20 21 25 28 31 30 31 34 35 23 24 24 26 24 26 28 30 29 26 24 22 21 18 17 17 15 15 13 11 9
2 2 1 3 3 4 0 2 3 2 2 4 5 5 5 13 16 17 20 20 18 22 26 28 35 28 31 36 25 24 22 25 24 26 28 29 28 26 23 19 16 15 14 12 12 11 9 7 7
2 1 3 4 3 4 1 2 3 2 5 3 1 7 11 16 17 20 18 17 16 17 28 29 32 30 30 21 30 24 19 18 23 26 28 28 27 24 21 18 16 13 11 11 9 8 6 4 6
3 3 6 6 4 2 1 2 4 4 4 3 3 5 16 16 14 17 19 21 22 26 29 30 37 35 38 35 30 19 20 23 24 26 28 27 24 21 18 16 13 12 11 9 6 5 3 3 6
4 5 4 6 11 3 3 2 2 2 5 9 12 17 18 18 17 17 21 21 23 27 33 41 38 35 30 26 18 21 22 22 24 26 26 25 22 20 16 13 13 12 9 5 4 3 0 6 9
3 9 7 5 3 4 4 3 0 4 2 4 10 14 17 17 17 19 19 26 32 30 26 33 30 34 33 24 19 18 20 23 25 25 24 22 21 17 15 14 12 9 6 6 4 2 5 10 12
3 3 5 4 5 4 3 3 2 3 5 9 13 15 14 14 15 23 27 23 22 29 32 32 38 33 23 22 20 21 22 23 26 25 23 20 18 15 14 12 12 8 8 6 4 3 8 10 13
3 1 4 6 3 2 1 2 1 2 6 13 14 15 13 13 14 19 23 28 28 31 38 40 36 29 19 17 17 19 21 23 24 23 21 18 15 13 13 13 12 10 7 8 6 7 9 10 9
1 1 3 2 3 1 2 4 4 4 11 13 11 11 13 14 16 23 26 24 28 34 38 31 23 18 18 16 18 20 22 24 23 21 19 17 15 15 14 11 10 11 10 8 7 8 8 8 7
2 2 2 1 3 2 4 5 3 10 15 13 11 10 12 18 19 21 22 21 35 34 33 24 17 16 17 17 18 20 22 23 21 20 18 16 16 13 12 11 11 9 10 8 9 7 6 5 5
4 1 1 3 5 3 3 5 2 12 13 12 12 12 14 18 18 20 20 26 28 27 25 23 19 15 16 16 18 20 23 23 21 18 18 15 14 13 10 9 11 11 12 8 7 5 5 5 6
4 2 3 5 2 5 6 10 4 13 14 12 12 14 19 21 23 23 23 24 26 26 26 23 18 16 16 17 20 22 24 23 21 20 17 16 12 10 10 12 13 12 10 8 7 6 5 5 7
2 3 3 3 5 4 5 9 10 15 14 12 15 18 20 25 22 24 22 23 28 29 27 26 23 20 21 23 25 26 26 24 22 20 19 13 12 12 14 15 13 12 12 9 8 6 6 6 7
2 4 4 2 3 3 6 9 5 16 20 21 19 19 21 21 24 29 26 24 27 32 31 27 25 23 23 23 24 25 23 24 21 21 19 15 16 16 16 15 14 15 12 10 9 8 7 6 8
4 4 3 5 3 2 4 4 3 7 12 13 19 20 19 23 27 31 33 30 28 31 32 29 26 26 26 26 26 26 25 25 25 25 18 19 18 17 16 16 16 15 12 12 12 9 6 6 9
5 6 6 3 1 1 2 3 3 5 10 13 23 22 26 27 27 28 34 36 35 34 34 32 29 28 28 28 29 28 29 29 28 23 18 19 18 19 20 20 19 17 16 15 13 10 7 8 11
5 2 2 1 3 2 1 1 4 0 8 17 24 29 30 34 33 32 34 34 34 32 32 30 28 27 28 28 28 29 30 30 27 23 21 22 21 23 24 22 21 20 20 18 15 13 10 11 13
5 4 5 3 1 1 0 2 4 4 4 4 14 25 32 34 36 34 33 33 34 32 31 30 28 28 27 27 28 30 32 32 30 25 25 25 26 27 27 25 24 24 23 21 19 17 17 14 15
3 4 1 1 1 2 3 1 8 4 7 6 10 15 29 37 37 36 35 37 37 35 34 33 33 32 32 32 29 31 34 34 33 27 28 27 29 30 29 28 28 27 24 24 20 19 24 20 26
5 4 4 3 2 1 2 4 3 5 11 12 12 13 13 25 35 37 36 36 37 36 35 32 35 35 31 24 29 31 35 35 36 29 28 27 29 28 30 30 28 27 25 22 18 22 19 19 14
4 3 2 6 2 1 2 4 8 2 6 6 9 10 7 14 22 32 36 37 38 39 39 36 37 35 34 32 26 33 33 36 35 32 30 27 28 31 32 30 28 27 22 23 22 17 16 14 14
2 8 3 1 3 3 3 3 3 6 6 4 4 6 6 5 10 18 25 31 35 37 35 36 37 34 36 34 31 32 30 31 34 31 30 29 30 33 33 30 26 26 21 19 17 16 11 13 14
3 2 3 3 2 3 2 4 6 5 2 5 4 3 3 4 4 8 13 18 24 29 30 30 32 30 31 28 33 29 25 28 27 30 32 31 33 32 32 21 25 22 18 11 10 11 14 14 15
2 6 6 3 4 1 1 6 5 8 5 7 12 8 4 3 3 4 6 9 13 16 18 20 22 24 23 24 26 24 21 23 27 30 29 30 28 28 24 22 19 14 11 12 7 13 15 15 16
Wind_Direction
268 209 196 188 236 327 255 233 252 262 181 244 277 112 142 63 153 108 326 174 174 172 169 166 162 161 161 159 156 154 151 149 149 150 145 142 139 136 133 129 126 121 115 112 110 115 112 108 103
206 190 173 154 248 247 264 240 222 261 271 322 336 130 356 87 41 59 145 166 172 171 169 167 166 164 161 159 157 152 149 148 147 144 140 139 137 135 132 127 122 117 114 111 110 115 113 108 106
205 197 341 74 117 246 260 219 19 303 311 316 66 56 191 42 51 128 143 155 178 171 172 169 167 164 161 157 151 147 145 146 143 141 139 137 137 135 132 127 125 121 116 112 112 112 110 108 105
167 118 56 293 258 247 246 330 30 7 12 42 90 78 60 19 224 91 206 171 180 173 175 171 168 162 160 155 150 147 147 145 143 141 139 136 138 134 133 129 126 120 118 113 115 114 108 107 107
151 76 65 282 271 266 258 298 72 209 188 25 28 50 27 52 108 161 171 181 177 177 176 175 171 164 159 155 153 149 146 143 142 142 139 139 139 137 135 128 125 121 117 118 116 112 110 115 112
110 107 54 268 265 271 288 198 91 296 64 103 111 100 199 145 155 168 173 176 173 178 175 175 171 166 158 149 144 143 143 145 144 141 140 142 143 139 133 130 128 127 125 122 121 120 121 117 105
144 117 200 274 283 297 341 75 94 163 92 80 139 127 171 172 175 172 179 178 175 181 177 167 164 164 156 142 141 137 142 137 140 139 144 146 142 139 138 136 134 133 130 126 126 126 116 103 87
166 95 159 248 278 306 125 107 120 151 132 142 160 168 174 178 171 169 173 181 182 188 178 173 167 159 133 129 137 132 133 140 138 146 149 147 146 146 145 142 140 138 133 132 130 121 107 97 73
136 64 263 256 219 273 170 134 146 141 130 104 273 176 176 173 175 177 170 184 187 180 174 170 162 146 138 139 132 141 135 142 150 151 152 152 155 155 152 151 151 142 143 131 122 116 111 76 49
163 196 226 207 204 246 208 184 159 182 131 103 84 158 159 165 183 180 173 181 190 172 166 161 150 144 140 141 129 146 161 157 152 155 157 159 160 161 160 159 149 154 142 136 132 128 106 39 21
181 230 242 252 233 247 154 227 183 146 213 198 190 170 169 169 179 188 190 197 159 156 150 145 142 137 136 141 167 165 160 153 160 161 163 164 167 169 166 163 167 152 154 155 154 163 9 354 347
229 251 255 303 224 144 186 168 224 213 286 304 170 171 171 169 175 180 174 165 157 143 144 130 143 143 135 161 162 162 168 171 167 167 169 168 174 173 175 173 170 172 183 187 195 212 349 329 327
213 294 317 328 115 88 126 35 327 312 347 147 153 163 175 166 170 166 159 151 151 149 142 134 137 140 157 158 179 180 178 176 172 172 171 173 175 178 181 183 190 202 207 215 215 307 302 310 312
168 86 54 51 85 101 122 28 2 247 135 132 156 168 174 173 162 175 145 142 150 152 147 147 152 163 176 186 178 178 180 178 176 175 175 179 187 193 193 199 206 211 225 220 225 288 290 297 305
83 325 79 82 178 160 112 264 233 203 167 153 167 175 164 156 150 141 149 151 153 152 157 157 164 173 178 185 185 186 185 183 183 184 191 197 202 208 208 210 215 222 208 216 262 283 291 300 321
10 43 19 268 187 57 205 287 145 180 181 165 174 173 180 172 160 162 173 170 165 163 170 172 175 183 188 194 197 192 189 189 193 200 205 208 210 218 223 214 218 223 215 227 247 265 287 309 334
21 307 299 284 203 121 254 294 148 191 198 188 184 181 189 183 178 180 175 186 184 190 185 195 204 209 204 200 202 198 196 197 204 208 211 212 221 221 218 226 221 220 223 227 248 268 292 304 320
199 208 238 317 163 196 226 260 186 197 200 217 200 191 192 196 196 188 190 190 191 190 197 207 221 219 209 206 206 203 203 208 213 219 219 220 222 224 227 225 223 223 227 230 246 268 279 299 323
181 196 262 273 162 248 229 275 222 197 208 216 212 206 202 208 205 200 198 200 204 205 208 212 214 211 208 207 206 206 208 214 220 222 223 225 227 226 226 223 226 225 219 225 247 255 275 300 325
168 221 240 301 301 320 324 305 234 191 210 208 214 210 212 206 211 213 213 215 212 211 211 214 216 216 214 213 212 215 218 225 231 229 225 216 223 223 220 228 222 220 220 235 242 254 281 306 333
227 219 209 264 344 308 307 277 200 209 237 223 225 228 222 215 209 214 215 219 218 217 218 220 222 221 222 219 217 222 226 231 230 229 223 220 217 223 223 218 217 216 227 240 243 250 264 306 325
254 220 209 215 325 271 315 301 274 217 217 222 234 221 226 221 220 216 221 223 223 222 223 224 226 224 225 226 228 231 234 232 233 235 228 223 226 226 221 217 216 225 237 240 239 248 267 307 317
230 150 165 163 187 253 145 227 277 178 233 227 224 225 225 224 222 221 220 225 226 225 225 225 227 228 229 231 233 238 239 242 243 238 229 226 233 229 223 221 223 230 236 239 238 246 269 294 315
137 82 44 61 112 333 230 234 274 233 237 271 230 227 228 226 228 226 227 225 228 226 227 227 230 236 239 238 242 247 246 246 244 237 230 228 232 227 223 223 227 232 237 237 242 253 274 288 296
115 105 223 116 128 202 129 170 253 260 252 250 281 251 235 230 228 231 230 229 227 226 228 231 234 238 240 240 246 247 248 248 247 244 233 237 232 226 224 227 229 233 239 242 238 288 283 295 299
175 195 156 179 189 238 198 230 243 219 293 288 299 299 257 243 235 231 234 233 233 231 232 232 237 237 241 245 254 252 248 249 247 243 239 246 239 234 230 230 231 232 233 235 261 296 295 302 289
161 181 123 106 37 166 260 276 274 251 307 304 315 317 298 248 243 243 239 238 240 237 233 231 236 235 237 236 254 251 250 248 246 241 240 236 232 230 229 228 229 226 235 249 274 278 292 285 288
181 147 131 66 179 239 245 264 239 311 336 315 333 329 304 289 253 245 243 243 242 245 242 240 244 244 246 243 251 258 257 251 249 240 231 230 229 228 227 229 238 242 253 256 267 285 273 278 284
147 177 71 118 166 206 255 248 215 239 234 286 289 293 293 275 266 253 244 242 243 247 249 248 247 248 250 249 251 261 262 252 245 241 233 229 232 229 228 244 235 243 247 251 291 281 275 285 292
175 170 156 156 198 211 271 255 235 252 252 274 280 287 262 208 168 223 245 241 240 245 248 250 249 246 251 250 254 255 252 249 239 242 236 234 228 228 228 238 231 225 239 291 291 274 274 288 292